SKYSAT-C2 (41773 NORAD) Tracking and Keplerian Element Data

This shows tracking and keplerian element data for the satellite.

Feedback or suggestion? Click here.




ElementValue
Catalog41773
NameSKYSAT-C2
Epoch Orbit12426
Epoch Day345.89909316
Epoch Year2018
RAAN54.5126
Inclination97.4244
Eccentricity0.0001345
Argument of Perigee27.3642
Mean Anonmoly85.4643
Mean Motion15.23195778
Decay Rate5.82E-06
L11 41773U 16058D 18345.89909316 .00000582 00000-0 27589-4 0 9998
L22 41773 97.4244 54.5126 0001345 27.3642 85.4643 15.23195778124267

Live tracking and technical data element details for SKYSAT-C2 (NORAD 41773). SKYSAT-C2 can be tracked NOW for your location showing map with azimuth and elevation plus other details from your city location.

Track the satellite on the map from your city or location and see movement details for azimuth, elevation, latitude, longitude, range, height, and movement on the map or in text.







IsCatalogInMostPopularTable: catalog: 41773, numindb: 105
Update: records affected: 1



GetName: 41773 SKYSAT-C2

Hit Count: updated at: Thu, 13 Dec 2018 03:39:16 GMT